Home > Weather > Bülach > Past weeks

Flag for Switzerland Weather for the Past 2 Weeks in Bülach, Zurich, Switzerland

Now
32 °F

Chilly.


Feels Like: 32 °F
Forecast: 34 / 49 °F
Wind: 1 mph from North

Location: Zurich-Kloten

Current Time: Feb 7, 2016 at 9:52:50 AM

Latest Report: Feb 7, 2016 at 9:00 AM


Visibility: N/A

Pressure: 29.71 "Hg

Humidity: 99%

Dew point: 31 °F

Location of BülachLocation

Historic Weather in Bülach — Graph

°F

Bülach Temperature Yesterday

Maximum temperature yesterday: 53 °F (at 3:00 PM)
Minimum temperature yesterday: 30 °F (at 3:00 AM)
Average temperature yesterday: 38 °F

High & Low Weather Summary for the Past Weeks

 TemperatureHumidityPressure
High57 °F (Feb 1, 12:00 PM)100% (Jan 24, 4:00 AM)30.71 "Hg (Jan 24, 4:00 AM)
Low26 °F (Jan 23, 11:00 PM)47% (Jan 25, 4:00 PM)29.72 "Hg (Feb 7, 7:00 AM)
Average42 °F83%30.34 "Hg
* Reported Jan 23 8:00 AM — Feb 7 8:00 AM, Bülach, Weather by CustomWeather, © 2016

Note: Actual official high and low records may vary slightly from our data, if they occured in-between our weather recording intervals... More about our weather records

Advertising

Bülach Weather History for the Previous 24 Hours

 ConditionsComfort  
Time TempWeatherWind HumidityBarometerVisibility
8:00 AM
Sun, Feb 7
32 °FChilly.6 mph98%29.73 "HgN/A
7:00 AM32 °FFog.6 mph98%29.72 "Hg0 mi
6:00 AM32 °FChilly.3 mph100%29.75 "HgN/A
5:00 AM31 °FChilly.1 mph100%29.77 "HgN/A
4:00 AM32 °FFog.3 mph99%29.80 "Hg0 mi
3:00 AM31 °FChilly.3 mph100%29.82 "HgN/A
1:00 AM33 °FFog.1 mph100%29.86 "Hg0 mi
9:00 PM
Sat, Feb 6
34 °FChilly.1 mph97%29.92 "HgN/A
8:00 PM38 °FChilly.2 mph95%29.93 "HgN/A
7:00 PM40 °FPassing clouds.3 mph91%29.95 "Hg12 mi
6:00 PM44 °FQuite cool.3 mph84%29.95 "HgN/A
5:00 PM49 °FCool.3 mph71%29.96 "HgN/A
4:00 PM51 °FPartly sunny.5 mph65%29.98 "Hg34 mi
3:00 PM53 °FCool.5 mph56%30.01 "HgN/A
2:00 PM52 °FCool.5 mph65%30.06 "HgN/A
1:00 PM48 °FFog.2 mph74%30.11 "Hg4 mi
12:00 PM38 °FChilly.3 mph95%30.19 "HgN/A
11:00 AM36 °FChilly.1 mph99%30.22 "HgN/A
10:00 AM33 °FFog.2 mph100%30.24 "Hg0 mi
9:00 AM32 °FChilly.2 mph98%30.25 "HgN/A
Weather by CustomWeather, © 2016

See weather overviewHow to use our weather pages